CW8398 Weather Reports


Display with metric or nautical units.
time (UTC)temp
F
wind
direction
speed
MPH
gust
MPH
rain 1hr
in
rain 24hr
in
rain mn
in
humidity
%
barometer
mb
20260508091802 54 188 3.0 6.0 0.00 0.00 0.00 42 1025.3
20260508090303 54 160 3.0 8.0 0.00 0.00 0.00 42 1025.2
20260508085802 54 183 2.0 6.0 0.00 0.00 0.00 44 1025.2
20260508084303 54 89 2.0 6.0 0.00 0.00 0.00 44 1025.2
20260508083802 54 189 2.0 5.0 0.00 0.00 0.00 44 1025.2
20260508082802 53 205 2.0 3.0 0.00 0.00 0.00 43 1025.1
20260508082306 53 117 2.0 3.0 0.00 0.00 0.00 44 1024.7
20260508081303 53 188 1.0 3.0 0.00 0.00 0.00 46 1024.7
20260508080803 53 353 2.0 3.0 0.00 0.00 0.00 46 1024.7
20260508080303 53 207 2.0 8.0 0.00 0.00 0.00 46 1024.7
20260508075803 53 44 2.0 8.0 0.00 0.00 0.00 45 1024.7
20260508075307 53 48 2.0 6.0 0.00 0.00 0.00 45 1024.7
20260508074802 53 254 1.0 3.0 0.00 0.00 0.00 44 1024.7
20260508074302 53 0 1.0 3.0 0.00 0.00 0.00 46 1024.7
20260508073802 52 275 1.0 3.0 0.00 0.00 0.00 47 1024.6
20260508073302 52 70 2.0 7.0 0.00 0.00 0.00 45 1024.6
20260508072803 52 51 3.0 12.0 0.00 0.00 0.00 47 1024.6
20260508072306 52 106 2.0 6.0 0.00 0.00 0.00 48 1024.4
20260508071802 51 156 2.0 6.0 0.00 0.00 0.00 49 1024.4
20260508070803 51 113 1.0 6.0 0.00 0.00 0.00 49 1024.4
20260508070302 51 343 2.0 6.0 0.00 0.00 0.00 49 1024.4
20260508065802 51 210 2.0 6.0 0.00 0.00 0.00 48 1024.1
20260508065306 51 315 1.0 3.0 0.00 0.00 0.00 50 1024.1
20260508064802 50 305 2.0 8.0 0.00 0.00 0.00 49 1024.1
20260508064302 50 143 2.0 8.0 0.00 0.00 0.00 50 1024.1
20260508063802 50 132 1.0 3.0 0.00 0.00 0.00 52 1024.1
20260508063302 50 137 3.0 7.0 0.00 0.00 0.00 52 1024.0
20260508062803 49 51 1.0 3.0 0.00 0.00 0.00 51 1024.0
20260508062306 49 314 2.0 6.0 0.00 0.00 0.00 52 1023.5
20260508061802 49 163 2.0 6.0 0.00 0.00 0.00 51 1023.5
20260508061302 48 118 2.0 5.0 0.00 0.00 0.00 52 1023.5
20260508060802 48 211 2.0 5.0 0.00 0.00 0.00 54 1023.5
20260508055803 48 340 2.0 3.0 0.00 0.00 0.00 58 1023.5
20260508055305 47 168 1.0 5.0 0.00 0.00 0.00 58 1023.5
20260508054802 47 244 1.0 3.0 0.00 0.00 0.00 60 1023.5
20260508054302 46 212 0.0 3.0 0.00 0.00 0.00 64 1023.5
20260508053803 46 212 1.0 3.0 0.00 0.00 0.00 65 1023.5
20260508053302 45 155 2.0 5.0 0.00 0.00 0.00 67 1023.5
20260508052803 45 172 1.0 3.0 0.00 0.00 0.00 71 1023.5
20260508051802 44 196 0.0 2.0 0.00 0.00 0.00 78 1023.5
20260508051303 43 196 1.0 3.0 0.00 0.00 0.00 81 1023.4
20260508050802 42 336 0.0 2.0 0.00 0.00 0.00 85 1023.4
20260508050303 42 201 1.0 2.0 0.00 0.00 0.00 88 1023.2
20260508045306 41 132 0.0 2.0 0.00 0.00 0.00 94 1022.3
20260508043302 40 85 0.0 1.0 0.00 0.00 0.00 95 1022.3
20260508041802 39 45 0.0 2.0 0.00 0.00 0.00 96 1022.3
20260508041303 39 337 0.0 1.0 0.00 0.00 0.00 96 1022.3
20260508040802 38 334 0.0 1.0 0.00 0.00 0.00 96 1022.3
20260508040302 38 330 0.0 1.0 0.00 0.00 0.00 95 1022.3
20260508035803 38 330 0.0 1.0 0.00 0.00 0.00 95 1022.3
20260508034802 38 25 0.0 1.0 0.00 0.00 0.00 96 1022.3
20260508034302 37 5 0.0 1.0 0.00 0.00 0.00 95 1022.3
20260508033302 37 23 1.0 3.0 0.00 0.00 0.00 95 1022.3
20260508032803 37 32 0.0 0.0 0.00 0.00 0.00 95 1022.3
20260508032306 36 32 0.0 0.0 0.00 0.00 0.00 95 1022.3
20260508031802 36 32 0.0 0.0 0.00 0.00 0.00 95 1022.3
20260508031302 36 32 0.0 0.0 0.00 0.00 0.00 95 1021.8
20260508030803 36 32 0.0 0.0 0.00 0.00 0.00 95 1021.8
20260508030302 36 32 0.0 0.0 0.00 0.00 0.00 95 1021.8
20260508025803 36 32 0.0 0.0 0.00 0.00 0.00 95 1021.8
20260508025305 36 32 0.0 0.0 0.00 0.00 0.00 95 1021.8
20260508024302 36 32 0.0 0.0 0.00 0.00 0.00 95 1021.8
20260508023803 36 32 0.0 0.0 0.00 0.00 0.00 95 1021.8
20260508023303 35 32 0.0 0.0 0.00 0.00 0.00 95 1021.8
20260508022306 35 32 0.0 0.0 0.00 0.00 0.00 95 1021.5
20260508021802 34 32 0.0 0.0 0.00 0.00 0.00 94 1021.5
20260508021303 34 32 0.0 0.0 0.00 0.00 0.00 94 1021.5
20260508020802 34 32 0.0 0.0 0.00 0.00 0.00 94 1021.5
20260508015802 34 32 0.0 0.0 0.00 0.00 0.00 94 1021.5
20260508015305 34 32 0.0 0.0 0.00 0.00 0.00 94 1021.5
20260508014802 34 32 0.0 0.0 0.00 0.00 0.00 94 1021.5
20260508014303 34 32 0.0 0.0 0.00 0.00 0.00 94 1021.4
20260508013803 34 32 0.0 0.0 0.00 0.00 0.00 93 1021.4
20260508013302 35 32 0.0 0.0 0.00 0.00 0.00 94 1021.4
20260508012802 35 32 0.0 0.0 0.00 0.00 0.00 94 1021.3
20260508012307 34 32 0.0 0.0 0.00 0.00 0.00 94 1021.3
20260508011802 34 32 0.0 0.0 0.00 0.00 0.00 94 1019.7
20260508011303 34 32 0.0 0.0 0.00 0.00 0.00 93 1019.7
20260508010802 34 32 0.0 0.0 0.00 0.00 0.00 94 1019.7
20260508005803 34 32 0.0 0.0 0.00 0.00 0.00 93 1019.7
20260508005305 34 32 0.0 0.0 0.00 0.00 0.00 93 1019.7
20260508004803 34 32 0.0 0.0 0.00 0.00 0.00 93 1019.7
20260508004303 34 32 0.0 0.0 0.00 0.00 0.00 93 1019.7
20260508003803 34 32 0.0 0.0 0.00 0.00 0.00 93 1019.7
20260508003302 34 32 0.0 0.0 0.00 0.00 0.00 92 1019.7
20260508002803 35 32 0.0 0.0 0.00 0.00 0.00 92 1019.7
20260508002306 34 32 0.0 0.0 0.00 0.00 0.00 92 1019.7
20260508001803 35 32 0.0 0.0 0.00 0.00 0.00 92 1019.7
20260508001302 35 32 0.0 0.0 0.00 0.00 0.00 92 1019.7
20260508000803 35 32 0.0 0.0 0.00 0.00 0.00 92 1019.7
20260508000305 35 32 0.0 0.0 0.00 0.00 0.00 91 1019.7
20260507235803 35 32 0.0 0.0 0.00 0.00 0.00 90 1019.7
20260507234803 35 32 0.0 0.0 0.00 0.00 0.00 91 1019.7
20260507233803 35 32 0.0 0.0 0.00 0.00 0.00 90 1019.7
20260507233303 35 32 0.0 0.0 0.00 0.00 0.00 88 1019.7
20260507232803 36 32 0.0 0.0 0.00 0.00 0.00 89 1019.7
20260507232306 36 32 0.0 0.0 0.00 0.00 0.00 90 1019.7
20260507231803 35 32 0.0 0.0 0.00 0.00 0.00 89 1019.7
20260507231302 35 32 0.0 0.0 0.00 0.00 0.00 86 1019.7
20260507230802 34 32 0.0 0.0 0.00 0.00 0.00 85 1019.7
20260507230302 34 32 0.0 0.0 0.00 0.00 0.00 84 1019.7
20260507225803 35 32 0.0 0.0 0.00 0.00 0.00 83 1019.7
20260507225305 35 32 0.0 0.0 0.00 0.00 0.00 83 1019.0
20260507224803 35 32 0.0 0.0 0.00 0.00 0.00 83 1019.0
20260507224303 35 32 0.0 0.0 0.00 0.00 0.00 84 1019.0
20260507223803 34 32 0.0 0.0 0.00 0.00 0.00 85 1019.0
20260507223303 34 32 0.0 0.0 0.00 0.00 0.00 86 1019.0
20260507221303 35 32 0.0 0.0 0.00 0.00 0.00 85 1019.0
20260507220816 35 32 0.0 1.0 0.00 0.00 0.00 86 1019.0
20260507220303 35 32 0.0 0.0 0.00 0.00 0.00 86 1019.0
20260507215803 35 32 0.0 0.0 0.00 0.00 0.00 87 1019.0
20260507215306 36 32 0.0 0.0 0.00 0.00 0.00 87 1019.0
20260507214802 36 32 0.0 0.0 0.00 0.00 0.00 88 1019.0
20260507214303 36 32 0.0 0.0 0.00 0.00 0.00 88 1019.0
20260507213803 36 32 0.0 0.0 0.00 0.00 0.00 86 1019.0
20260507213303 36 32 0.0 0.0 0.00 0.00 0.00 86 1019.0
20260507212306 36 32 1.0 1.0 0.00 0.00 0.00 84 1019.0
20260507211803 36 32 1.0 1.0 0.00 0.00 0.00 84 1019.0
20260507211303 36 32 1.0 1.0 0.00 0.00 0.00 84 1019.0
20260507210803 37 32 1.0 1.0 0.00 0.00 0.00 84 1018.9
20260507210303 37 32 0.0 1.0 0.00 0.00 0.00 84 1018.8
20260507205802 37 32 0.0 0.0 0.00 0.00 0.00 84 1018.8
20260507205306 37 32 0.0 0.0 0.00 0.00 0.00 84 1018.8
20260507204803 37 32 0.0 0.0 0.00 0.00 0.00 82 1018.7
20260507204302 37 32 0.0 0.0 0.00 0.00 0.00 81 1018.7
20260507203803 37 32 0.0 0.0 0.00 0.00 0.00 81 1018.5
20260507203303 37 32 0.0 0.0 0.00 0.00 0.00 81 1018.5
20260507202802 37 32 0.0 0.0 0.00 0.00 0.00 81 1018.5
20260507201803 38 32 0.0 0.0 0.00 0.00 0.00 79 1018.4
20260507201303 38 32 0.0 0.0 0.00 0.00 0.00 78 1018.4
20260507200803 38 32 0.0 0.0 0.00 0.00 0.00 77 1018.3
20260507200303 38 32 0.0 0.0 0.00 0.00 0.00 77 1018.3
20260507195802 39 32 0.0 0.0 0.00 0.00 0.00 76 1018.2
20260507195305 39 32 0.0 0.0 0.00 0.00 0.00 76 1018.0
20260507194803 39 32 0.0 0.0 0.00 0.00 0.00 76 1018.0
20260507194303 39 32 0.0 0.0 0.00 0.00 0.00 75 1018.0
20260507193804 39 32 0.0 0.0 0.00 0.00 0.00 74 1018.0
20260507193303 40 32 0.0 0.0 0.00 0.00 0.00 74 1018.0
20260507192803 40 32 0.0 0.0 0.00 0.00 0.00 73 1016.8
20260507192306 40 32 0.0 0.0 0.00 0.00 0.00 72 1016.8
20260507191803 41 32 0.0 0.0 0.00 0.00 0.00 72 1016.8
20260507191303 41 32 0.0 0.0 0.00 0.00 0.00 71 1016.8
20260507190802 41 32 0.0 0.0 0.00 0.00 0.00 70 1016.8
20260507185803 42 32 0.0 0.0 0.00 0.00 0.00 68 1016.8
20260507185305 42 32 0.0 1.0 0.00 0.00 0.00 67 1016.8
20260507184803 42 32 0.0 1.0 0.00 0.00 0.00 66 1016.8
20260507184302 43 32 0.0 1.0 0.00 0.00 0.00 65 1016.8
20260507183802 43 32 1.0 1.0 0.00 0.00 0.00 65 1016.8
20260507182803 44 32 0.0 0.0 0.00 0.00 0.00 62 1016.8
20260507182306 45 32 0.0 0.0 0.00 0.00 0.00 60 1016.8
20260507181803 46 32 0.0 0.0 0.00 0.00 0.00 58 1016.8
20260507180803 46 32 0.0 1.0 0.00 0.00 0.00 56 1016.8
20260507180303 47 32 0.0 1.0 0.00 0.00 0.00 55 1016.8
20260507175802 47 36 1.0 3.0 0.00 0.00 0.00 54 1016.8
20260507175306 47 127 0.0 1.0 0.00 0.00 0.00 54 1016.8
20260507174803 48 127 0.0 1.0 0.00 0.00 0.00 52 1016.5
20260507174303 48 119 0.0 1.0 0.00 0.00 0.00 51 1016.5
20260507173803 48 43 0.0 2.0 0.00 0.00 0.00 51 1016.5
20260507173303 48 47 1.0 2.0 0.00 0.00 0.00 50 1016.5
20260507172803 48 14 1.0 2.0 0.00 0.00 0.00 50 1016.5
20260507172307 49 137 0.0 1.0 0.00 0.00 0.00 49 1016.5
20260507171303 49 150 1.0 2.0 0.00 0.00 0.00 46 1016.3
20260507170803 49 119 0.0 2.0 0.00 0.00 0.00 45 1016.3
20260507170303 50 90 1.0 3.0 0.00 0.00 0.00 45 1016.3
20260507165803 50 110 1.0 2.0 0.00 0.00 0.00 44 1016.3
20260507165306 50 207 1.0 5.0 0.00 0.00 0.00 43 1016.3
20260507164803 50 349 1.0 3.0 0.00 0.00 0.00 42 1016.1
20260507164303 50 12 1.0 3.0 0.00 0.00 0.00 40 1016.1
20260507163803 50 182 1.0 3.0 0.00 0.00 0.00 41 1016.1
20260507163303 50 19 1.0 6.0 0.00 0.00 0.00 40 1014.8
20260507162802 51 41 1.0 3.0 0.00 0.00 0.00 41 1014.8
20260507162306 51 213 1.0 3.0 0.00 0.00 0.00 40 1014.8
20260507161303 51 170 2.0 5.0 0.00 0.00 0.00 40 1014.8
20260507160802 52 183 1.0 3.0 0.00 0.00 0.00 42 1014.8
20260507160303 52 189 1.0 3.0 0.00 0.00 0.00 42 1014.8
20260507155803 52 16 1.0 8.0 0.00 0.00 0.00 42 1014.8
20260507155306 52 143 1.0 5.0 0.00 0.00 0.00 43 1014.8
20260507154803 52 142 2.0 5.0 0.00 0.00 0.00 43 1014.8
20260507154303 52 69 2.0 5.0 0.00 0.00 0.00 45 1014.8
20260507153803 53 209 1.0 5.0 0.00 0.00 0.00 44 1014.8
20260507153303 52 319 1.0 3.0 0.00 0.00 0.00 42 1014.8
20260507152803 53 157 2.0 3.0 0.00 0.00 0.00 40 1014.8
20260507152306 53 148 2.0 6.0 0.00 0.00 0.00 40 1014.8
20260507151803 53 60 1.0 5.0 0.00 0.00 0.00 38 1014.8
20260507151303 53 272 1.0 6.0 0.00 0.00 0.00 38 1014.8
20260507150803 53 130 2.0 5.0 0.00 0.00 0.00 35 1014.8
20260507150303 53 325 1.0 6.0 0.00 0.00 0.00 35 1014.8
20260507145803 53 119 1.0 7.0 0.00 0.00 0.00 35 1014.8
20260507145306 53 157 2.0 8.0 0.00 0.00 0.00 35 1014.8
20260507144803 53 197 2.0 6.0 0.00 0.00 0.00 35 1014.8
20260507144303 52 193 3.0 10.0 0.00 0.00 0.00 34 1014.8
20260507143303 53 187 2.0 5.0 0.00 0.00 0.00 36 1014.8
20260507142803 53 199 3.0 7.0 0.00 0.00 0.00 32 1014.8
20260507142306 53 168 2.0 6.0 0.00 0.00 0.00 32 1014.8
20260507141803 53 192 2.0 5.0 0.00 0.00 0.00 32 1014.8
20260507141303 53 287 2.0 5.0 0.00 0.00 0.00 32 1014.8
20260507140803 53 121 2.0 5.0 0.00 0.00 0.00 33 1014.8
20260507140303 54 69 2.0 5.0 0.00 0.00 0.00 34 1014.8
20260507135804 54 198 2.0 5.0 0.00 0.00 0.00 36 1014.8
20260507135306 53 55 3.0 6.0 0.00 0.00 0.00 34 1014.8
20260507134802 54 72 2.0 6.0 0.00 0.00 0.00 35 1014.8
20260507134303 54 137 2.0 6.0 0.00 0.00 0.00 36 1014.8
20260507133803 54 150 2.0 6.0 0.00 0.00 0.00 34 1014.8
20260507133303 54 125 2.0 6.0 0.00 0.00 0.00 34 1014.8
20260507132803 54 121 2.0 5.0 0.00 0.00 0.00 34 1014.8
20260507132307 54 202 3.0 8.0 0.00 0.00 0.00 32 1014.8
20260507131803 55 68 2.0 7.0 0.00 0.00 0.00 33 1014.8
20260507131303 54 3 3.0 8.0 0.00 0.00 0.00 34 1014.8
20260507130303 54 25 4.0 8.0 0.00 0.00 0.00 34 1014.8
20260507125803 54 51 2.0 7.0 0.00 0.00 0.00 32 1014.8
20260507125306 54 45 3.0 7.0 0.00 0.00 0.00 30 1014.8
20260507124803 55 354 2.0 3.0 0.00 0.00 0.00 30 1014.6
20260507124303 54 80 2.0 7.0 0.00 0.00 0.00 30 1014.6
20260507123803 54 24 2.0 6.0 0.00 0.00 0.00 28 1014.6
20260507123303 54 81 3.0 7.0 0.00 0.00 0.00 27 1014.6
20260507122803 55 55 2.0 9.0 0.00 0.00 0.00 28 1014.6
20260507122306 54 13 3.0 9.0 0.00 0.00 0.00 27 1014.6
20260507121803 54 85 2.0 3.0 0.00 0.00 0.00 27 1014.6
20260507121303 54 50 3.0 6.0 0.00 0.00 0.00 28 1014.6
20260507120803 53 358 4.0 10.0 0.00 0.00 0.00 27 1014.6
20260507120303 54 2 3.0 8.0 0.00 0.00 0.00 28 1014.6
20260507115803 54 29 3.0 8.0 0.00 0.00 0.00 25 1014.6
20260507115306 54 11 2.0 8.0 0.00 0.00 0.00 27 1014.6
20260507114803 54 350 3.0 6.0 0.00 0.00 0.00 27 1014.4
20260507114303 54 358 3.0 6.0 0.00 0.00 0.00 27 1014.4
20260507113803 54 342 4.0 10.0 0.00 0.00 0.00 27 1014.4
20260507112803 54 321 2.0 5.0 0.00 0.00 0.00 27 1014.4
20260507112306 54 15 2.0 5.0 0.00 0.00 0.00 30 1014.4
20260507111803 54 357 3.0 6.0 0.00 0.00 0.00 29 1014.4
20260507111303 54 20 2.0 6.0 0.00 0.00 0.00 29 1014.4
20260507110803 54 66 3.0 10.0 0.00 0.00 0.00 28 1014.4
20260507110303 54 5 2.0 3.0 0.00 0.00 0.00 27 1014.4
20260507105306 55 338 1.0 8.0 0.00 0.00 0.00 28 1014.0
20260507104303 53 39 4.0 9.0 0.00 0.00 0.00 25 1014.0
20260507103803 53 347 4.0 10.0 0.00 0.00 0.00 25 1014.0
20260507103303 54 293 2.0 6.0 0.00 0.00 0.00 26 1014.0
20260507102803 54 327 1.0 10.0 0.00 0.00 0.00 29 1014.0
20260507102306 53 26 1.0 5.0 0.00 0.00 0.00 29 1014.0
20260507101803 53 52 1.0 5.0 0.00 0.00 0.00 27 1014.0
20260507100803 53 15 3.0 6.0 0.00 0.00 0.00 33 1014.0
20260507100303 53 79 2.0 5.0 0.00 0.00 0.00 30 1014.0
20260507095803 53 14 3.0 5.0 0.00 0.00 0.00 30 1014.0
20260507095305 53 155 2.0 5.0 0.00 0.00 0.00 31 1014.0
20260507094804 53 9 5.0 12.0 0.00 0.00 0.00 33 1014.0
20260507094303 54 69 2.0 8.0 0.00 0.00 0.00 34 1014.0
20260507093804 53 85 1.0 3.0 0.00 0.00 0.00 34 1014.0
20260507093304 53 188 4.0 9.0 0.00 0.00 0.00 33 1014.0
20260507092803 53 47 3.0 9.0 0.00 0.00 0.00 34 1014.0
20260507092306 53 176 2.0 8.0 0.00 0.00 0.00 35 1013.8